TimeEDT,TemperatureF,Dew PointF,Humidity,Sea Level PressureIn,VisibilityMPH,Wind Direction,Wind SpeedMPH,Gust SpeedMPH,PrecipitationIn,Events,Conditions,WindDirDegrees,DateUTC
12:53 AM,39.9,30.9,70,30.28,10.0,NW,4.6,-,N/A,,Clear,320,2013-03-29 04:53:00
1:53 AM,43.0,28.0,56,30.28,10.0,North,6.9,-,N/A,,Clear,350,2013-03-29 05:53:00
2:53 AM,41.0,27.0,57,30.28,10.0,North,6.9,-,N/A,,Clear,10,2013-03-29 06:53:00
3:53 AM,37.9,26.1,62,30.28,10.0,North,4.6,-,N/A,,Clear,360,2013-03-29 07:53:00
4:53 AM,36.0,28.9,76,30.29,10.0,Calm,Calm,-,N/A,,Clear,0,2013-03-29 08:53:00
5:53 AM,34.0,28.0,79,30.30,10.0,Calm,Calm,-,N/A,,Clear,0,2013-03-29 09:53:00
6:53 AM,32.0,28.0,85,30.31,10.0,Calm,Calm,-,N/A,,Clear,0,2013-03-29 10:53:00
7:53 AM,36.0,30.9,82,30.33,10.0,Calm,Calm,-,N/A,,Clear,0,2013-03-29 11:53:00
8:53 AM,46.0,30.0,54,30.34,10.0,North,3.5,-,N/A,,Clear,360,2013-03-29 12:53:00
9:53 AM,51.1,26.1,38,30.35,10.0,NNE,5.8,-,N/A,,Clear,20,2013-03-29 13:53:00
10:53 AM,53.1,24.1,32,30.33,10.0,NNE,4.6,-,N/A,,Clear,20,2013-03-29 14:53:00
11:53 AM,55.9,26.1,32,30.32,10.0,NW,10.4,-,0.00,,Clear,310,2013-03-29 15:53:00
12:53 PM,57.0,24.1,28,30.29,10.0,Variable,5.8,16.1,N/A,,Clear,0,2013-03-29 16:53:00
1:53 PM,59.0,25.0,27,30.27,10.0,West,10.4,-,N/A,,Clear,280,2013-03-29 17:53:00
2:53 PM,61.0,25.0,25,30.25,10.0,NW,9.2,17.3,N/A,,Clear,310,2013-03-29 18:53:00
3:53 PM,57.9,30.9,36,30.22,10.0,Variable,5.8,17.3,N/A,,Clear,0,2013-03-29 19:53:00
4:53 PM,57.9,32.0,37,30.20,10.0,South,10.4,-,N/A,,Clear,190,2013-03-29 20:53:00
5:53 PM,55.9,32.0,40,30.21,10.0,South,13.8,-,N/A,,Clear,190,2013-03-29 21:53:00
6:53 PM,54.0,33.1,45,30.22,10.0,South,12.7,-,N/A,,Clear,190,2013-03-29 22:53:00
7:53 PM,52.0,33.1,49,30.23,10.0,SSW,10.4,-,N/A,,Clear,200,2013-03-29 23:53:00
8:53 PM,50.0,35.1,57,30.24,10.0,SSW,6.9,-,N/A,,Clear,210,2013-03-30 00:53:00
9:53 PM,48.9,36.0,61,30.25,10.0,SSW,6.9,-,N/A,,Clear,210,2013-03-30 01:53:00
10:53 PM,48.9,37.9,66,30.25,10.0,SSW,5.8,-,N/A,,Clear,210,2013-03-30 02:53:00
11:53 PM,48.9,39.9,71,30.25,10.0,SW,5.8,-,N/A,,Partly Cloudy,220,2013-03-30 03:53:00